Regional Weather Roundup
Issued by NWS

Home | Current Version | Previous Version | Text Only | Print | Product List | Glossary Off
Versions: 1 2 3 4 5 6 7 8 9 10 11 12 13 14 15 16 17 18 19 20 21 22 23 24 25 26 27 28 29 30 31 32 33 34 35 36 37 38 39 40 41 42 43 44 45 46 47 48 49 50

000
ASUS45 KCYS 250710
RWRWY

WYOMING REGIONAL WEATHER ROUNDUP
NATIONAL WEATHER SERVICE CHEYENNE WY
100 AM MDT SAT APR 25 2015

NOTE:  "FAIR" INDICATES FEW OR NO CLOUDS BELOW 12,000 FEET
WITH NO SIGNIFICANT WEATHER AND/OR OBSTRUCTIONS TO VISIBILITY.

WYZ001-250800-
YELLOWSTONE NATIONAL PARK

CITY           SKY/WX    TMP DP  RH WIND       PRES   REMARKS
LK YELLOWSTONE   N/A     33  31  92 CALM      29.72S
W YELLOWSTONE  NOT AVBL

$$
WYZ002>013-054>058-071-098>099-250800-
NORTHERN WYOMING

CITY           SKY/WX    TMP DP  RH WIND       PRES   REMARKS
JACKSON        MOCLDY    37  37 100 SW6       29.71S WCI  33
CODY           FAIR      46  39  76 N9        29.61S
GREYBULL       CLOUDY    54  39  57 NW14      29.57S
WORLAND        FAIR      50  39  66 NE8       29.56F
SHERIDAN       FAIR      52  37  56 SE9       29.57F
BUFFALO        FAIR      48  39  71 S15G25    29.63F
GILLETTE       FAIR      47  38  71 S7        29.63F
HULETT         FAIR      50  34  53 S6        29.66R
NEWCASTLE      FAIR      43  36  75 CALM      29.68S

$$
WYZ014>020-022>026-101>103-250800-
CENTRAL WYOMING

CITY           SKY/WX    TMP DP  RH WIND       PRES   REMARKS
BIG PINEY      LGT RAIN  38  36  92 SW3       29.73S
PINEDALE       DRIZZLE   36  36 100 E3        29.74S
DUBOIS         FAIR      36  32  87 NW7       29.67F WCI  30
LANDER         FAIR      50  31  48 SW6       29.61F
RIVERTON       FAIR      47  33  58 W6        29.64S
CASPER         CLOUDY    46  34  62 SW9       29.69R
DOUGLAS        FAIR      44  40  85 CALM      29.68R

$$
WYZ021-027>030-104>119-250800-
SOUTHERN WYOMING

CITY           SKY/WX    TMP DP  RH WIND       PRES   REMARKS
EVANSTON       CLOUDY    34 N/A N/A SW16      29.79R FOG     WCI  24
KEMMERER       LGT SNOW  32  32 100 W13       29.77R VSB 3/4 WCI  22
FORT BRIDGER   CLOUDY    39  37  93 W21G26    29.80S WCI  29
ROCK SPRINGS   FAIR      39  33  79 SW6       29.74F WCI  35
DIXON          PTSUNNY   40  35  82 CALM      29.79S
RAWLINS        FAIR      35  30  82 SW3       29.77S
SARATOGA       CLOUDY    37  32  81 CALM      29.79S
LARAMIE        FAIR      34  29  82 SW12      29.76S WCI  25
CHEYENNE       FAIR      42  32  67 W9        29.71S
TORRINGTON     FAIR      46  41  82 W5        29.65R
PINE BLUFFS    FAIR      45  36  70 W9        29.68R

$$



USA.gov is the U.S. government's official web portal to all federal, state and local government web resources and services.